This demonstration page uses our WeatherBlox Daily Observations layout. Learn more.

Left ArrowRight Arrow

Hourly Observations for May 3, 2020

Temp ( °F °C ) Dew Point ( °F °C ) Humidity (%) Winds ( mph kmh ) Pressure ( in mb ) Visibility ( mi km ) Precip ( " mm )
12:15 am 00:15 Cloudy 56 13.5 44 6.8 64 64 NNW 5 7 30.07 1018 10 16.0934 0 0
12:35 am 00:35 Cloudy 56 13.5 45 7 65 65 NNW 6 9 30.09 1019 10 16.0934 0 0
12:55 am 00:55 Cloudy with Light Rain 56 13.3 45 7.1 66 66 Calm 30.06 1018 10 16.0934 0 0
1:15 am 01:15 Cloudy with Light Rain 55 12.7 47 8.4 75 75 ESE 7 11 30.01 1016 10 16.0934 0 0
1:35 am 01:35 Partly Cloudy 54 12.4 46 8 75 75 N 8 13 30.04 1017 10 16.0934 0 0
1:55 am 01:55 Partly Cloudy 52 11.3 47 8.6 84 84 NE 7 11 30.02 1017 10 16.0934 0 0
2:15 am 02:15 Mostly Cloudy 54 12 47 8.5 79 79 NNW 5 7 30.06 1018 10 16.0934 0 0
2:35 am 02:35 Partly Cloudy 53 11.6 47 8.6 82 82 WNW 5 7 30.07 1018 10 16.0934 0 0
2:55 am 02:55 Partly Cloudy 53 11.8 47 8.6 81 81 N 6 9 30.06 1018 10 16.0934 0 0
3:15 am 03:15 Mostly Cloudy with Light Rain 53 11.7 48 8.8 83 83 Calm 30.06 1018 10 16.0934 0 0
3:35 am 03:35 Cloudy 53 11.5 48 8.8 84 84 Calm 30.05 1018 10 16.0934 0 0
3:55 am 03:55 Partly Cloudy 52 11.3 48 9.1 86 86 Calm 30.04 1017 10 16.0934 0 0
4:15 am 04:15 Clear 53 11.4 48 9 85 85 Calm 30.03 1017 10 16.0934 0 0
4:35 am 04:35 Clear 52 11.1 48 9.1 88 88 ESE 3 6 30.03 1017 10 16.0934 0 0
4:55 am 04:55 Clear 51 10.5 48 9 91 91 Calm 30.05 1018 10 16.0934 0 0
5:15 am 05:15 Clear 51 10.5 47 8.6 88 88 Calm 30.05 1018 10 16.0934 0 0
5:35 am 05:35 Clear 50 10.2 47 8.3 88 88 Calm 30.04 1017 10 16.0934 0 0
5:55 am 05:55 Clear 49 9.2 46 7.9 92 92 Calm 30.06 1018 10 16.0934 0 0
6:15 am 06:15 Clear 48 9 46 7.7 92 92 NW 3 6 30.06 1018 10 16.0934 0 0
6:35 am 06:35 Sunny 48 8.7 46 7.8 94 94 NNW 3 6 30.07 1018 10 16.0934 0 0
6:55 am 06:55 Sunny 47 8.3 45 7.2 93 93 NNW 3 6 30.09 1019 10 16.0934 0 0
7:15 am 07:15 Sunny 47 8.6 45 7.2 91 91 WNW 3 6 30.09 1019 10 16.0934 0 0
7:35 am 07:35 Sunny 49 9.3 46 7.5 89 89 NW 3 6 30.08 1019 10 16.0934 0 0
7:55 am 07:55 Sunny 52 11.2 47 8.3 83 83 Calm 30.06 1018 10 16.0934 0 0
8:15 am 08:15 Sunny 55 12.7 47 8.3 75 75 Calm 30.04 1017 10 16.0934 0 0
8:35 am 08:35 Sunny 57 14 45 7.4 65 65 N 5 7 30.03 1017 10 16.0934 0 0
8:55 am 08:55 Sunny 59 15 44 6.8 58 58 NE 6 9 30.01 1016 10 16.0934 0 0
9:15 am 09:15 Sunny 60 15.7 43 6.2 53 53 NE 6 9 30.01 1016 10 16.0934 0 0
9:35 am 09:35 Sunny 62 16.5 40 4.7 46 46 ENE 3 6 30.02 1016 10 16.0934 0 0
9:55 am 09:55 Partly Cloudy 64 17.5 40 4.7 43 43 E 3 6 30.01 1016 10 16.0934 0 0
10:15 am 10:15 Mostly Cloudy 64 17.7 38 3.4 39 39 E 8 13 30.01 1016 10 16.0934 0 0
10:35 am 10:35 Partly Cloudy 65 18.5 39 3.9 38 38 E 8 13 30 1016 10 16.0934 0 0
10:55 am 10:55 Sunny 66 19 37 2.8 34 34 E 5 7 29.99 1015 10 16.0934 0 0
11:15 am 11:15 Sunny 68 20 39 3.9 35 35 E 7 11 29.98 1015 10 16.0934 0 0
11:35 am 11:35 Partly Cloudy 68 19.8 37 2.9 33 33 ESE 8 13 29.98 1015 10 16.0934 0 0
11:55 am 11:55 Sunny 69 20.5 39 3.8 33 33 Calm 29.96 1015 10 16.0934 0 0
12:15 pm 12:15 Sunny 70 21.1 40 4.3 33 33 ENE 7 11 29.95 1014 10 16.0934 0 0
12:35 pm 12:35 Sunny 70 21.1 40 4.6 34 34 Calm 29.95 1014 10 16.0934 0 0
12:55 pm 12:55 Sunny 71 21.5 40 4.7 33 33 ENE 6 9 29.93 1014 10 16.0934 0 0
1:15 pm 13:15 Sunny 71 21.8 42 5.3 34 34 SE 9 15 29.92 1013 10 16.0934 0 0
1:35 pm 13:35 Sunny 72 22.2 41 5.1 33 33 SSE 5 7 29.91 1013 10 16.0934 0 0
1:55 pm 13:55 Partly Cloudy 74 23.1 42 5.3 32 32 SE 6 9 29.89 1012 10 16.0934 0 0
2:15 pm 14:15 Partly Cloudy 72 22.1 40 4.7 32 32 SE 7 11 29.9 1013 10 16.0934 0 0
2:35 pm 14:35 Mostly Cloudy 73 22.8 40 4.5 30 30 SSW 5 7 29.88 1012 10 16.0934 0 0
2:55 pm 14:55 Cloudy 74 23.1 41 5.1 31 31 Calm 29.89 1012 10 16.0934 0 0
3:15 pm 15:15 Cloudy 73 22.9 42 5.3 32 32 E 6 9 29.88 1012 10 16.0934 0 0
3:35 pm 15:35 Mostly Cloudy 75 23.7 42 5.4 31 31 ESE 13 20 29.86 1011 10 16.0934 0 0
3:55 pm 15:55 Partly Cloudy 75 24.1 42 5.7 31 31 NNE 8 13 29.85 1011 10 16.0934 0 0
4:15 pm 16:15 Sunny 76 24.4 42 5.6 30 30 E 10 17 29.84 1011 10 16.0934 0 0
4:35 pm 16:35 Partly Cloudy 77 24.8 42 5.4 29 29 SSE 9 15 29.83 1010 10 16.0934 0 0
4:55 pm 16:55 Mostly Cloudy 76 24.5 41 5.2 29 29 ESE 10 17 29.82 1010 10 16.0934 0 0
5:15 pm 17:15 Mostly Cloudy 76 24.3 41 5.2 29 29 SE 10 17 29.81 1010 10 16.0934 0 0
5:35 pm 17:35 Partly Cloudy 76 24.2 42 5.3 30 30 S 5 7 29.82 1010 10 16.0934 0 0
5:55 pm 17:55 Mostly Cloudy 74 23.6 41 5.1 30 30 SE 9 15 29.83 1010 10 16.0934 0 0
6:15 pm 18:15 Mostly Cloudy 76 24.6 41 5.2 29 29 SSE 6 9 29.81 1009 10 16.0934 0 0
6:35 pm 18:35 Partly Cloudy 74 23.6 41 4.9 30 30 SE 12 19 29.82 1010 10 16.0934 0 0
6:55 pm 18:55 Partly Cloudy 74 23.1 41 5.2 31 31 ESE 9 15 29.82 1010 10 16.0934 0 0
7:15 pm 19:15 Sunny 73 22.9 41 5.2 32 32 SE 8 13 29.82 1010 10 16.0934 0 0
7:35 pm 19:35 Sunny 72 22.4 41 5.2 33 33 SE 9 15 29.84 1010 10 16.0934 0 0
7:55 pm 19:55 Partly Cloudy 71 21.7 42 5.3 34 34 SE 7 11 29.85 1011 10 16.0934 0 0
8:15 pm 20:15 Mostly Cloudy 70 21.1 42 5.7 37 37 SE 6 9 29.87 1011 10 16.0934 0 0
8:35 pm 20:35 Cloudy 69 20.6 43 6 39 39 SE 6 9 29.88 1012 10 16.0934 0 0
8:55 pm 20:55 Mostly Cloudy 68 20 43 6.3 41 41 SE 12 19 29.86 1011 10 16.0934 0 0
9:15 pm 21:15 Partly Cloudy 68 20.1 42 5.5 39 39 SE 10 17 29.86 1011 10 16.0934 0 0
9:35 pm 21:35 Clear 68 20 42 5.7 39 39 SE 10 17 29.87 1011 10 16.0934 0 0
9:55 pm 21:55 Partly Cloudy 67 19.5 43 6 41 41 SE 9 15 29.88 1012 10 16.0934 0 0
10:15 pm 22:15 Partly Cloudy 66 19 43 6.3 44 44 SE 12 19 29.87 1011 10 16.0934 0 0
10:35 pm 22:35 Clear 66 19 44 6.5 44 44 SE 12 19 29.88 1012 10 16.0934 0 0
10:55 pm 22:55 Mostly Cloudy 66 19 44 6.7 45 45 SE 7 11 29.9 1012 10 16.0934 0 0
11:15 pm 23:15 Cloudy with Light Rain 64 18 48 8.9 55 55 SE 8 13 29.91 1013 10 16.0934 0 0
11:35 pm 23:35 Cloudy with Light Rain 64 17.6 48 8.9 57 57 ESE 9 15 29.91 1013 10 16.0934 0 0
11:55 pm 23:55 Cloudy with Light Rain 61 16 50 10.1 68 68 ESE 9 15 29.91 1013 10 16.0934 0 0

Powered by AerisWeather